Year,Month,Day,Hour,Minute,Value (Times are PST for temperature in C)
2009,04,30,00,00,8.10
2009,04,30,00,01,8.10
2009,04,30,00,02,8.10
2009,04,30,00,03,8.10
2009,04,30,00,04,8.10
2009,04,30,00,05,8.10
2009,04,30,11,08,13.10
2009,04,30,11,09,13.10
2009,04,30,11,10,13.20
2009,04,30,11,11,13.20
2009,04,30,11,12,13.30
2009,04,30,11,13,13.30
2009,04,30,11,14,13.30
2009,04,30,11,15,13.20
2009,04,30,11,16,13.30
2009,04,30,11,17,13.40
2009,04,30,11,18,13.40
2009,04,30,11,19,13.50
2009,04,30,11,20,13.40
2009,04,30,11,21,13.30
2009,04,30,11,22,13.20
2009,04,30,11,23,13.10
2009,04,30,11,24,12.90
2009,04,30,11,25,12.80
2009,04,30,11,26,12.70
2009,04,30,11,27,12.80
2009,04,30,11,28,12.90
2009,04,30,11,29,13.10
2009,04,30,11,30,13.30
2009,04,30,11,31,13.40
2009,04,30,11,32,13.40
2009,04,30,11,33,13.20
2009,04,30,11,34,13.10
2009,04,30,11,35,13.00
2009,04,30,11,36,13.00
2009,04,30,11,37,13.10
2009,04,30,11,38,13.20
2009,04,30,11,39,13.40
2009,04,30,11,40,13.50
2009,04,30,11,41,13.60
2009,04,30,11,42,13.70
2009,04,30,11,43,13.80
2009,04,30,11,44,13.80
2009,04,30,11,45,13.80
2009,04,30,11,46,13.90
2009,04,30,11,47,13.90
2009,04,30,11,48,14.00
2009,04,30,11,49,14.10
2009,04,30,11,50,14.30
2009,04,30,11,51,14.30
2009,04,30,11,52,14.30
2009,04,30,11,53,14.30
2009,04,30,11,54,14.20
2009,04,30,11,55,14.10
2009,04,30,11,56,14.00
2009,04,30,11,57,13.90
2009,04,30,11,58,13.80
2009,04,30,11,59,13.60
2009,04,30,12,00,13.50
2009,04,30,12,01,13.40
2009,04,30,12,02,13.50
2009,04,30,12,03,13.60
2009,04,30,12,04,13.70
2009,04,30,12,05,13.80
2009,04,30,12,06,13.90
2009,04,30,12,07,14.00
2009,04,30,12,08,14.20
2009,04,30,12,09,14.30
2009,04,30,12,10,14.30
2009,04,30,12,11,14.30
2009,04,30,12,12,14.40
2009,04,30,12,13,14.50
2009,04,30,12,14,14.50
2009,04,30,12,15,14.60
2009,04,30,12,16,14.70
2009,04,30,12,17,14.70
2009,04,30,12,18,14.70
2009,04,30,12,19,14.60
2009,04,30,12,20,14.50
2009,04,30,12,21,14.40
2009,04,30,12,22,14.50
2009,04,30,12,23,14.50
2009,04,30,12,24,14.40
2009,04,30,12,25,14.30
2009,04,30,12,26,14.30
2009,04,30,12,27,14.30
2009,04,30,12,28,14.40
2009,04,30,12,29,14.40
2009,04,30,12,30,14.40
2009,04,30,12,31,14.40
2009,04,30,12,32,14.40
2009,04,30,12,33,14.50
2009,04,30,12,34,14.70
2009,04,30,12,35,14.80
2009,04,30,12,36,14.80
2009,04,30,12,37,14.80
2009,04,30,12,38,14.80
2009,04,30,12,39,14.80
2009,04,30,12,40,14.70
2009,04,30,12,41,14.70
2009,04,30,12,42,14.70
2009,04,30,12,43,14.70
2009,04,30,12,44,14.80
2009,04,30,12,45,14.80
2009,04,30,12,46,14.60
2009,04,30,12,47,14.50
2009,04,30,12,48,14.50
2009,04,30,12,49,14.40
2009,04,30,12,50,14.30
2009,04,30,12,51,14.10
2009,04,30,12,52,14.10
2009,04,30,12,53,14.20
2009,04,30,12,54,14.20
2009,04,30,12,55,14.30
2009,04,30,12,56,14.40
2009,04,30,12,57,14.60
2009,04,30,12,58,14.70
2009,04,30,12,59,14.80
2009,04,30,13,00,14.90
2009,04,30,13,01,15.00
2009,04,30,13,02,15.00
2009,04,30,13,03,15.00
2009,04,30,13,04,15.00
2009,04,30,13,05,15.00
2009,04,30,13,06,15.00
2009,04,30,13,07,15.00
2009,04,30,13,08,15.00
2009,04,30,13,09,15.00
2009,04,30,13,10,14.90
2009,04,30,13,11,14.60
2009,04,30,13,12,14.30
2009,04,30,13,13,14.20
2009,04,30,13,14,14.20
2009,04,30,13,15,14.30
2009,04,30,13,16,14.40
2009,04,30,13,17,14.50
2009,04,30,13,18,14.60
2009,04,30,13,19,14.70
2009,04,30,13,20,14.90
2009,04,30,13,21,15.00
2009,04,30,13,22,15.00
2009,04,30,13,23,15.00
2009,04,30,13,24,15.00
2009,04,30,13,25,15.00
2009,04,30,13,26,15.10
2009,04,30,13,27,15.20
2009,04,30,13,28,15.20
2009,04,30,13,29,15.20
2009,04,30,13,30,15.20
2009,04,30,13,31,15.30
2009,04,30,13,32,15.30
2009,04,30,13,33,15.30
2009,04,30,13,34,15.30
2009,04,30,13,35,15.20
2009,04,30,13,36,15.10
2009,04,30,13,37,15.10
2009,04,30,13,38,15.10
2009,04,30,13,39,15.20
2009,04,30,13,40,15.30
2009,04,30,13,41,15.50
2009,04,30,13,42,15.60
2009,04,30,13,43,15.70
2009,04,30,13,44,15.70
2009,04,30,13,45,15.70
2009,04,30,13,46,15.70
2009,04,30,13,47,15.50
2009,04,30,13,48,15.40
2009,04,30,13,49,15.30
2009,04,30,13,50,15.20
2009,04,30,13,51,15.00
2009,04,30,13,52,15.00
2009,04,30,13,53,15.00
2009,04,30,13,54,15.00
2009,04,30,13,55,15.00
2009,04,30,13,56,15.00
2009,04,30,13,57,15.00
2009,04,30,13,58,15.10
2009,04,30,13,59,15.20
2009,04,30,14,00,15.30
2009,04,30,14,01,15.30
2009,04,30,14,02,15.20
2009,04,30,14,03,15.10
2009,04,30,14,04,15.00
2009,04,30,14,05,15.00
2009,04,30,14,06,15.00
2009,04,30,14,07,15.00
2009,04,30,14,08,15.00
2009,04,30,14,09,15.00
2009,04,30,14,10,15.00
2009,04,30,14,11,14.80
2009,04,30,14,12,14.80
2009,04,30,14,13,14.80
2009,04,30,14,14,15.00
2009,04,30,14,15,15.00
2009,04,30,14,16,14.90
2009,04,30,14,17,14.70
2009,04,30,14,18,14.60
2009,04,30,14,19,14.60
2009,04,30,14,20,14.60
2009,04,30,14,21,14.70
2009,04,30,14,22,14.70
2009,04,30,14,23,14.80
2009,04,30,14,24,14.90
2009,04,30,14,25,14.90
2009,04,30,14,26,14.90
2009,04,30,14,27,15.00
2009,04,30,14,28,15.00
2009,04,30,14,29,15.10
2009,04,30,14,30,15.10
2009,04,30,14,31,15.00
2009,04,30,14,32,15.00
2009,04,30,14,33,15.00
2009,04,30,14,34,15.20
2009,04,30,14,35,15.20
2009,04,30,14,36,15.30
2009,04,30,14,37,15.40
2009,04,30,14,38,15.50
2009,04,30,14,39,15.60
2009,04,30,14,40,15.60
2009,04,30,14,41,15.40
2009,04,30,14,42,15.40
2009,04,30,14,43,15.30
2009,04,30,14,44,15.20
2009,04,30,14,45,15.10
2009,04,30,14,46,15.10
2009,04,30,14,47,15.20
2009,04,30,14,48,15.20
2009,04,30,14,49,15.40
2009,04,30,14,50,15.40
2009,04,30,14,51,15.50
2009,04,30,14,52,15.60
2009,04,30,14,53,15.80
2009,04,30,14,54,15.90
2009,04,30,14,55,15.90
2009,04,30,14,56,16.00
2009,04,30,14,57,16.10
2009,04,30,14,58,16.10
2009,04,30,14,59,16.10
2009,04,30,15,00,16.20
2009,04,30,15,01,16.20
2009,04,30,15,02,16.20
2009,04,30,15,03,16.30
2009,04,30,15,04,16.30
2009,04,30,15,05,16.20
2009,04,30,15,06,16.20
2009,04,30,15,07,16.10
2009,04,30,15,08,16.20
2009,04,30,15,09,16.20
2009,04,30,15,10,16.20
2009,04,30,15,11,16.10
2009,04,30,15,12,16.10
2009,04,30,15,13,16.10
2009,04,30,15,14,16.10
2009,04,30,15,15,16.10
2009,04,30,15,16,16.10
2009,04,30,15,17,16.10
2009,04,30,15,18,16.00
2009,04,30,15,19,16.00
2009,04,30,15,20,16.00
2009,04,30,15,21,16.10
2009,04,30,15,22,16.10
2009,04,30,15,23,16.10
2009,04,30,15,24,16.20
2009,04,30,15,25,16.20
2009,04,30,15,26,16.20
2009,04,30,15,27,16.20
2009,04,30,15,28,16.20
2009,04,30,15,29,16.20
2009,04,30,15,30,16.20
2009,04,30,15,31,16.30
2009,04,30,15,32,16.30
2009,04,30,15,33,16.20
2009,04,30,15,34,16.00
2009,04,30,15,35,15.90
2009,04,30,15,36,15.80
2009,04,30,15,37,15.70
2009,04,30,15,38,15.60
2009,04,30,15,39,15.40
2009,04,30,15,40,15.40
2009,04,30,15,41,15.40
2009,04,30,15,42,15.50
2009,04,30,15,43,15.60
2009,04,30,15,44,15.70
2009,04,30,15,45,15.80
2009,04,30,15,46,15.90
2009,04,30,15,47,15.90
2009,04,30,15,48,15.90
2009,04,30,15,49,15.80
2009,04,30,15,50,15.80
2009,04,30,15,51,15.80
2009,04,30,15,52,15.80
2009,04,30,15,53,15.90
2009,04,30,15,54,16.00
2009,04,30,15,55,16.00
2009,04,30,15,56,16.10
2009,04,30,15,57,16.10
2009,04,30,15,58,16.10
2009,04,30,15,59,16.00
2009,04,30,16,00,15.90
2009,04,30,16,01,15.70
2009,04,30,16,02,15.60
2009,04,30,16,03,15.50
2009,04,30,16,04,15.40
2009,04,30,16,05,15.30
2009,04,30,16,06,15.30
2009,04,30,16,07,15.40
2009,04,30,16,08,15.50
2009,04,30,16,09,15.60
2009,04,30,16,10,15.70
2009,04,30,16,11,15.70
2009,04,30,16,12,15.70
2009,04,30,16,13,15.80
2009,04,30,16,14,15.80
2009,04,30,16,15,15.80
2009,04,30,16,16,15.80
2009,04,30,16,17,15.80
2009,04,30,16,18,15.80
2009,04,30,16,19,15.80
2009,04,30,16,20,15.90
2009,04,30,16,21,15.90
2009,04,30,16,22,15.90
2009,04,30,16,23,15.90
2009,04,30,16,24,15.90
2009,04,30,16,25,15.90
2009,04,30,16,26,15.90
2009,04,30,16,27,15.90
2009,04,30,16,28,15.90
2009,04,30,16,29,15.90
2009,04,30,16,30,15.90
2009,04,30,16,31,15.90
2009,04,30,16,32,16.00
2009,04,30,16,33,16.10
2009,04,30,16,34,16.10
2009,04,30,16,35,16.20
2009,04,30,16,36,16.20
2009,04,30,16,37,16.20
2009,04,30,16,38,16.20
2009,04,30,16,39,16.20
2009,04,30,16,40,16.20
2009,04,30,16,41,16.30
2009,04,30,16,42,16.30
2009,04,30,16,43,16.30
2009,04,30,16,44,16.30
2009,04,30,16,45,16.30
2009,04,30,16,46,16.20
2009,04,30,16,47,16.20
2009,04,30,16,48,16.20
2009,04,30,16,49,16.10
2009,04,30,16,50,16.10
2009,04,30,16,51,16.10
2009,04,30,16,52,16.10
2009,04,30,16,53,16.10
2009,04,30,16,54,16.10
2009,04,30,16,55,15.90
2009,04,30,16,56,15.90
2009,04,30,16,57,16.00
2009,04,30,16,58,16.10
2009,04,30,16,59,16.10
2009,04,30,17,00,16.20
2009,04,30,17,01,16.20
2009,04,30,17,02,16.30
2009,04,30,17,03,16.30
2009,04,30,17,04,16.30
2009,04,30,17,05,16.30
2009,04,30,17,06,16.40
2009,04,30,17,07,16.30
2009,04,30,17,08,16.30
2009,04,30,17,09,16.30
2009,04,30,17,10,16.20
2009,04,30,17,11,16.00
2009,04,30,17,12,15.90
2009,04,30,17,13,15.90
2009,04,30,17,14,15.90
2009,04,30,17,15,15.80
2009,04,30,17,16,15.80
2009,04,30,17,17,15.80
2009,04,30,17,18,15.80
2009,04,30,17,19,15.80
2009,04,30,17,20,15.80
2009,04,30,17,21,15.80
2009,04,30,17,22,15.80
2009,04,30,17,23,15.90
2009,04,30,17,24,15.90
2009,04,30,17,25,16.00
2009,04,30,17,26,16.10
2009,04,30,17,27,16.10
2009,04,30,17,28,16.10
2009,04,30,17,29,16.20
2009,04,30,17,30,16.20
2009,04,30,17,31,16.10
2009,04,30,17,32,16.10
2009,04,30,17,33,16.20
2009,04,30,17,34,16.20
2009,04,30,17,35,16.20
2009,04,30,17,36,16.20
2009,04,30,17,37,16.20
2009,04,30,17,38,16.20
2009,04,30,17,39,16.10
2009,04,30,17,40,16.10
2009,04,30,17,41,16.10
2009,04,30,17,42,16.10
2009,04,30,17,43,16.00
2009,04,30,17,44,15.90
2009,04,30,17,45,15.90
2009,04,30,17,46,15.90
2009,04,30,17,47,15.90
2009,04,30,17,48,15.90
2009,04,30,17,49,15.90
2009,04,30,17,50,15.90
2009,04,30,17,51,15.90
2009,04,30,17,52,15.80
2009,04,30,17,53,15.80
2009,04,30,17,54,15.80
2009,04,30,17,55,15.90
2009,04,30,17,56,15.80
2009,04,30,17,57,15.80
2009,04,30,17,58,15.80
2009,04,30,17,59,15.80
2009,04,30,18,00,15.70
2009,04,30,18,01,15.70
2009,04,30,18,02,15.80
2009,04,30,18,03,15.80
2009,04,30,18,04,15.80
2009,04,30,18,05,15.80
2009,04,30,18,06,15.80
2009,04,30,18,07,15.80
2009,04,30,18,08,15.90
2009,04,30,18,09,15.90
2009,04,30,18,10,15.90
2009,04,30,18,11,15.90
2009,04,30,18,12,15.90
2009,04,30,18,13,15.90
2009,04,30,18,14,15.90
2009,04,30,18,15,15.80
2009,04,30,18,16,15.80
2009,04,30,18,17,15.70
2009,04,30,18,18,15.70
2009,04,30,18,19,15.70
2009,04,30,18,20,15.60
2009,04,30,18,21,15.60
2009,04,30,18,22,15.70
2009,04,30,18,23,15.70
2009,04,30,18,24,15.70
2009,04,30,18,25,15.70
2009,04,30,18,26,15.80
2009,04,30,18,27,15.80
2009,04,30,18,28,15.80
2009,04,30,18,29,15.80
2009,04,30,18,30,15.80
2009,04,30,18,31,15.80
2009,04,30,18,32,15.90
2009,04,30,18,33,15.90
2009,04,30,18,34,15.90
2009,04,30,18,35,15.90
2009,04,30,18,36,15.90
2009,04,30,18,37,15.90
2009,04,30,18,38,15.90
2009,04,30,18,39,15.80
2009,04,30,18,40,15.80
2009,04,30,18,41,15.80
2009,04,30,18,42,15.70
2009,04,30,18,43,15.70
2009,04,30,18,44,15.60
2009,04,30,18,45,15.60
2009,04,30,18,46,15.50
2009,04,30,18,47,15.40
2009,04,30,18,48,15.30
2009,04,30,18,49,15.20
2009,04,30,18,50,15.20
2009,04,30,18,51,15.00
2009,04,30,18,52,15.00
2009,04,30,18,53,15.00
2009,04,30,18,54,15.00
2009,04,30,18,55,14.80
2009,04,30,18,56,14.80
2009,04,30,18,57,14.70
2009,04,30,18,58,14.60
2009,04,30,18,59,14.50
2009,04,30,19,00,14.40
2009,04,30,19,01,14.30
2009,04,30,19,02,14.20
2009,04,30,19,03,14.00
2009,04,30,19,04,14.00
2009,04,30,19,05,13.90
2009,04,30,19,06,13.80
2009,04,30,19,07,13.80
2009,04,30,19,08,13.80
2009,04,30,19,09,13.80
2009,04,30,19,10,13.80
2009,04,30,19,11,13.70
2009,04,30,19,12,13.70
2009,04,30,19,13,13.70
2009,04,30,19,14,13.70
2009,04,30,19,15,13.70
2009,04,30,19,16,13.70
2009,04,30,19,17,13.70
2009,04,30,19,18,13.70
2009,04,30,19,19,13.70
2009,04,30,19,20,13.60
2009,04,30,19,21,13.60
2009,04,30,19,22,13.60
2009,04,30,19,23,13.50
2009,04,30,19,24,13.50
2009,04,30,19,25,13.40
2009,04,30,19,26,13.30
2009,04,30,19,27,13.30
2009,04,30,19,28,13.20
2009,04,30,19,29,13.20
2009,04,30,19,30,13.10
2009,04,30,19,31,13.00
2009,04,30,19,32,13.00
2009,04,30,19,33,12.90
2009,04,30,19,34,12.80
2009,04,30,19,35,12.80
2009,04,30,19,36,12.70
2009,04,30,19,37,12.70
2009,04,30,19,38,12.60
2009,04,30,19,39,12.60
2009,04,30,19,40,12.60
2009,04,30,19,41,12.50
2009,04,30,19,42,12.50
2009,04,30,19,43,12.40
2009,04,30,19,44,12.40
2009,04,30,19,45,12.30
2009,04,30,19,46,12.30
2009,04,30,19,47,12.20
2009,04,30,19,48,12.20
2009,04,30,19,49,12.20
2009,04,30,19,50,12.20
2009,04,30,19,51,12.20
2009,04,30,19,52,12.10
2009,04,30,19,53,12.10
2009,04,30,19,54,12.10
2009,04,30,19,55,12.10
2009,04,30,19,56,12.00
2009,04,30,19,57,12.00
2009,04,30,19,58,11.90
2009,04,30,19,59,11.90
2009,04,30,20,00,11.90
2009,04,30,20,01,11.80
2009,04,30,20,02,11.80
2009,04,30,20,03,11.70
2009,04,30,20,04,11.70
2009,04,30,20,05,11.70
2009,04,30,20,06,11.60
2009,04,30,20,07,11.50
2009,04,30,20,08,11.50
2009,04,30,20,09,11.40
2009,04,30,20,10,11.40
2009,04,30,20,11,11.30
2009,04,30,20,12,11.30
2009,04,30,20,13,11.30
2009,04,30,20,14,11.20
2009,04,30,20,15,11.20
2009,04,30,20,16,11.10
2009,04,30,20,17,11.10
2009,04,30,20,18,11.10
2009,04,30,20,19,11.00
2009,04,30,20,20,11.00
2009,04,30,20,21,10.90
2009,04,30,20,22,10.80
2009,04,30,20,23,10.80
2009,04,30,20,24,10.80
2009,04,30,20,25,10.70
2009,04,30,20,26,10.70
2009,04,30,20,27,10.60
2009,04,30,20,28,10.60
2009,04,30,20,29,10.50
2009,04,30,20,30,10.50
2009,04,30,20,31,10.40
2009,04,30,20,32,10.40
2009,04,30,20,33,10.30
2009,04,30,20,34,10.30
2009,04,30,20,35,10.30
2009,04,30,20,36,10.20
2009,04,30,20,37,10.20
2009,04,30,20,38,10.10
2009,04,30,20,39,10.10
2009,04,30,20,40,10.00
2009,04,30,20,41,10.00
2009,04,30,20,42,9.90
2009,04,30,20,43,9.90
2009,04,30,20,44,9.80
2009,04,30,20,45,9.80
2009,04,30,20,46,9.70
2009,04,30,20,47,9.70
2009,04,30,20,48,9.70
2009,04,30,20,49,9.60
2009,04,30,20,50,9.60
2009,04,30,20,51,9.60
2009,04,30,20,52,9.50
2009,04,30,20,53,9.50
2009,04,30,20,54,9.40
2009,04,30,20,55,9.40
2009,04,30,20,56,9.30
2009,04,30,20,57,9.30
2009,04,30,20,58,9.30
2009,04,30,20,59,9.20
2009,04,30,21,00,9.20
2009,04,30,21,01,9.10
2009,04,30,21,02,9.10
2009,04,30,21,03,9.10
2009,04,30,21,04,9.00
2009,04,30,21,05,9.00
2009,04,30,21,06,9.00
2009,04,30,21,07,8.90
2009,04,30,21,08,8.90
2009,04,30,21,09,8.90
2009,04,30,21,10,8.80
2009,04,30,21,11,8.80
2009,04,30,21,12,8.80
2009,04,30,21,13,8.80
2009,04,30,21,14,8.70
2009,04,30,21,15,8.70
2009,04,30,21,16,8.70
2009,04,30,21,17,8.60
2009,04,30,21,18,8.60
2009,04,30,21,19,8.60
2009,04,30,21,20,8.60
2009,04,30,21,21,8.50
2009,04,30,21,22,8.50
2009,04,30,21,23,8.50
2009,04,30,21,24,8.50
2009,04,30,21,25,8.50
2009,04,30,21,26,8.50
2009,04,30,21,27,8.60
2009,04,30,21,28,8.60
2009,04,30,21,29,8.60
2009,04,30,21,30,8.60
2009,04,30,21,31,8.50
2009,04,30,21,32,8.50
2009,04,30,21,33,8.50
2009,04,30,21,34,8.40
2009,04,30,21,35,8.40
2009,04,30,21,36,8.40
2009,04,30,21,37,8.30
2009,04,30,21,38,8.30
2009,04,30,21,39,8.30
2009,04,30,21,40,8.20
2009,04,30,21,41,8.20
2009,04,30,21,42,8.20
2009,04,30,21,43,8.10
2009,04,30,21,44,8.10
2009,04,30,21,45,8.00
2009,04,30,21,46,8.00
2009,04,30,21,47,8.00
2009,04,30,21,48,7.90
2009,04,30,21,49,7.90
2009,04,30,21,50,7.90
2009,04,30,21,51,7.90
2009,04,30,21,52,7.90
2009,04,30,21,53,7.90
2009,04,30,21,54,7.90
2009,04,30,21,55,7.80
2009,04,30,21,56,7.80
2009,04,30,21,57,7.80
2009,04,30,21,58,7.80
2009,04,30,21,59,7.80
2009,04,30,22,00,7.80
2009,04,30,22,01,7.70
2009,04,30,22,02,7.70
2009,04,30,22,03,7.70
2009,04,30,22,04,7.70
2009,04,30,22,05,7.60
2009,04,30,22,06,7.60
2009,04,30,22,07,7.60
2009,04,30,22,08,7.50
2009,04,30,22,09,7.50
2009,04,30,22,10,7.50
2009,04,30,22,11,7.40
2009,04,30,22,12,7.40
2009,04,30,22,13,7.40
2009,04,30,22,14,7.40
2009,04,30,22,15,7.40
2009,04,30,22,16,7.40
2009,04,30,22,17,7.30
2009,04,30,22,18,7.30
2009,04,30,22,19,7.30
2009,04,30,22,20,7.30
2009,04,30,22,21,7.30
2009,04,30,22,22,7.20
2009,04,30,22,23,7.20
2009,04,30,22,24,7.20
2009,04,30,22,25,7.20
2009,04,30,22,26,7.20
2009,04,30,22,27,7.20
2009,04,30,22,28,7.20
2009,04,30,22,29,7.10
2009,04,30,22,30,7.10
2009,04,30,22,31,7.10
2009,04,30,22,32,7.10
2009,04,30,22,33,7.10
2009,04,30,22,34,7.10
2009,04,30,22,35,7.00
2009,04,30,22,36,7.00
2009,04,30,22,37,7.00
2009,04,30,22,38,7.00
2009,04,30,22,39,7.00
2009,04,30,22,40,6.90
2009,04,30,22,41,6.90
2009,04,30,22,42,6.90
2009,04,30,22,43,6.90
2009,04,30,22,44,6.90
2009,04,30,22,45,6.80
2009,04,30,22,46,6.80
2009,04,30,22,47,6.80
2009,04,30,22,48,6.80
2009,04,30,22,49,6.80
2009,04,30,22,50,6.80
2009,04,30,22,51,6.80
2009,04,30,22,52,6.70
2009,04,30,22,53,6.70
2009,04,30,22,54,6.70
2009,04,30,22,55,6.70
2009,04,30,22,56,6.70
2009,04,30,22,57,6.60
2009,04,30,22,58,6.60
2009,04,30,22,59,6.60
2009,04,30,23,00,6.60
2009,04,30,23,01,6.60
2009,04,30,23,02,6.50
2009,04,30,23,03,6.50
2009,04,30,23,04,6.50
2009,04,30,23,05,6.50
2009,04,30,23,06,6.40
2009,04,30,23,07,6.40
2009,04,30,23,08,6.40
2009,04,30,23,09,6.40
2009,04,30,23,10,6.40
2009,04,30,23,11,6.40
2009,04,30,23,12,6.40
2009,04,30,23,13,6.40
2009,04,30,23,14,6.40
2009,04,30,23,15,6.40
2009,04,30,23,16,6.40
2009,04,30,23,17,6.40
2009,04,30,23,18,6.40
2009,04,30,23,19,6.40
2009,04,30,23,20,6.40
2009,04,30,23,21,6.40
2009,04,30,23,22,6.40
2009,04,30,23,23,6.40
2009,04,30,23,24,6.40
2009,04,30,23,25,6.30
2009,04,30,23,26,6.30
2009,04,30,23,27,6.30
2009,04,30,23,28,6.30
2009,04,30,23,29,6.30
2009,04,30,23,30,6.30
2009,04,30,23,31,6.30
2009,04,30,23,32,6.20
2009,04,30,23,33,6.20
2009,04,30,23,34,6.20
2009,04,30,23,35,6.20
2009,04,30,23,36,6.20
2009,04,30,23,37,6.20
2009,04,30,23,38,6.20
2009,04,30,23,39,6.20
2009,04,30,23,40,6.20
2009,04,30,23,41,6.20
2009,04,30,23,42,6.20
2009,04,30,23,43,6.20
2009,04,30,23,44,6.20
